,,,PA_Meas_PMT16A,,PR_Meas_QMR101_102,,RH_Meas_QMH101,,SR_Meas_QMS101,,TA_Meas_QMH101,,GenWind,,GenWind,
date,time,status,PA,status,PR,status,RH,status,SR,status,TA,status,DirAvg,status,SpdAvg,
2010-07-22, 00:00:04,VALID,1003.95,VALID,0,VALID,104,VALID,0,VALID,25.3195,VALID,345,VALID,1.01797,
2010-07-22, 00:01:04,VALID,1003.9,VALID,0,VALID,104,VALID,0,VALID,25.3176,VALID,350,VALID,0.463281,
2010-07-22, 00:02:04,VALID,1003.94,VALID,0,VALID,104,VALID,0,VALID,25.3176,VALID,355,VALID,0.712891,
2010-07-22, 00:03:04,VALID,1003.9,VALID,0,VALID,104,VALID,0.100563,VALID,25.2962,VALID,343,VALID,0.408203,
2010-07-22, 00:04:04,VALID,1003.89,VALID,0,VALID,104,VALID,0,VALID,25.3176,VALID,334,VALID,0.242578,
2010-07-22, 00:05:04,VALID,1003.9,VALID,0,VALID,104,VALID,0.100563,VALID,25.3565,VALID,335,VALID,0.015625,
2010-07-22, 00:06:04,VALID,1003.9,VALID,0,VALID,104,VALID,0,VALID,25.3565,VALID,335,VALID,0.0761719,
2010-07-22, 00:07:04,VALID,1003.88,VALID,0,VALID,104,VALID,0.100563,VALID,25.3351,VALID,347,VALID,0.338281,
2010-07-22, 00:08:04,VALID,1003.9,VALID,0,VALID,104,VALID,0,VALID,25.3351,VALID,346,VALID,0.266406,
2010-07-22, 00:09:04,VALID,1003.87,VALID,0,VALID,104,VALID,0.100563,VALID,25.376,VALID,344,VALID,0.260156,
2010-07-22, 00:10:04,VALID,1003.86,VALID,0,VALID,104,VALID,0.100563,VALID,25.376,VALID,1,VALID,0.449219,
2010-07-22, 00:11:04,VALID,1003.85,VALID,0,VALID,104,VALID,0.100563,VALID,25.3955,VALID,358,VALID,0.133203,
2010-07-22, 00:12:04,VALID,1003.82,VALID,0,VALID,104,VALID,0.100563,VALID,25.3955,VALID,349,VALID,0.402344,
2010-07-22, 00:13:04,VALID,1003.8,VALID,0,VALID,104,VALID,0,VALID,25.3741,VALID,353,VALID,0.826953,
2010-07-22, 00:14:04,VALID,1003.84,VALID,0,VALID,104,VALID,0.100563,VALID,25.3935,VALID,353,VALID,0.563672,
2010-07-22, 00:15:04,VALID,1003.86,VALID,0,VALID,104,VALID,0,VALID,25.4149,VALID,340,VALID,0.496875,
2010-07-22, 00:16:04,VALID,1003.85,VALID,0,VALID,104,VALID,0,VALID,25.4169,VALID,338,VALID,0.223828,
2010-07-22, 00:17:04,VALID,1003.88,VALID,0,VALID,104,VALID,0,VALID,25.376,VALID,338,VALID,0.0242187,
2010-07-22, 00:18:04,VALID,1003.84,VALID,0,VALID,104,VALID,0,VALID,25.3779,VALID,338,VALID,0.245703,
2010-07-22, 00:19:04,VALID,1003.85,VALID,0,VALID,104,VALID,0,VALID,25.3584,VALID,338,VALID,0.0378906,
2010-07-22, 00:20:04,VALID,1003.85,VALID,0,VALID,104,VALID,0,VALID,25.339,VALID,338,VALID,0.0496094,
2010-07-22, 00:21:04,VALID,1003.83,VALID,0,VALID,104,VALID,0,VALID,25.3176,VALID,338,VALID,0.285156,
2010-07-22, 00:22:04,VALID,1003.83,VALID,0,VALID,104,VALID,0,VALID,25.3176,VALID,339,VALID,0.0679687,
2010-07-22, 00:23:04,VALID,1003.83,VALID,0,VALID,104,VALID,0,VALID,25.337,VALID,341,VALID,0.523828,
2010-07-22, 00:24:04,VALID,1003.79,VALID,0,VALID,104,VALID,0,VALID,25.3779,VALID,349,VALID,0.839063,
2010-07-22, 00:25:04,VALID,1003.79,VALID,0,VALID,104,VALID,0,VALID,25.4169,VALID,349,VALID,0.629687,
2010-07-22, 00:26:04,VALID,1003.75,VALID,0,VALID,104,VALID,0,VALID,25.4363,VALID,348,VALID,0.683594,
2010-07-22, 00:27:04,VALID,1003.75,VALID,0,VALID,104,VALID,0,VALID,25.4363,VALID,350,VALID,1.07187,
2010-07-22, 00:28:04,VALID,1003.72,VALID,0,VALID,104,VALID,0,VALID,25.4558,VALID,346,VALID,1.19883,
2010-07-22, 00:29:04,VALID,1003.7,VALID,0,VALID,104,VALID,0,VALID,25.4948,VALID,357,VALID,0.372266,
2010-07-22, 00:30:04,VALID,1003.66,VALID,0,VALID,104,VALID,0,VALID,25.5142,VALID,353,VALID,0.641406,
2010-07-22, 00:31:04,VALID,1003.69,VALID,0,VALID,104,VALID,0.100563,VALID,25.5318,VALID,334,VALID,0.304688,
2010-07-22, 00:32:04,VALID,1003.68,VALID,0,VALID,104,VALID,0.100563,VALID,25.5123,VALID,352,VALID,0.685156,
2010-07-22, 00:33:04,VALID,1003.7,VALID,0,VALID,104,VALID,0.100563,VALID,25.5318,VALID,351,VALID,1.02617,
2010-07-22, 00:34:04,VALID,1003.73,VALID,0,VALID,104,VALID,0.100563,VALID,25.5104,VALID,351,VALID,0.871875,
2010-07-22, 00:35:04,VALID,1003.73,VALID,0,VALID,104,VALID,0,VALID,25.5318,VALID,359,VALID,1.29805,
2010-07-22, 00:36:04,VALID,1003.7,VALID,0,VALID,104,VALID,0,VALID,25.5513,VALID,352,VALID,1.24375,
2010-07-22, 00:37:04,VALID,1003.73,VALID,0,VALID,104,VALID,0.100563,VALID,25.5513,VALID,348,VALID,1.03906,
2010-07-22, 00:38:04,VALID,1003.68,VALID,0,VALID,104,VALID,0.100563,VALID,25.5707,VALID,351,VALID,0.983203,
2010-07-22, 00:39:04,VALID,1003.69,VALID,0,VALID,104,VALID,0.100563,VALID,25.5513,VALID,345,VALID,1.07969,
2010-07-22, 00:40:04,VALID,1003.67,VALID,0,VALID,104,VALID,0.100563,VALID,25.5513,VALID,351,VALID,1.03594,
2010-07-22, 00:41:04,VALID,1003.66,VALID,0,VALID,104,VALID,0.100563,VALID,25.5513,VALID,340,VALID,0.849219,
2010-07-22, 00:42:05,VALID,1003.65,VALID,0,VALID,104,VALID,0.100563,VALID,25.5513,VALID,347,VALID,1.97227,
2010-07-22, 00:43:05,VALID,1003.63,VALID,0,VALID,104,VALID,0.100563,VALID,25.5513,VALID,345,VALID,1.27695,
2010-07-22, 00:44:05,VALID,1003.6,VALID,0,VALID,104,VALID,0.100563,VALID,25.5707,VALID,359,VALID,0.582422,
2010-07-22, 00:45:05,VALID,1003.57,VALID,0,VALID,103.348,VALID,0.100563,VALID,25.5902,VALID,350,VALID,1.25977,
2010-07-22, 00:46:05,VALID,1003.59,VALID,0,VALID,102.044,VALID,0,VALID,25.6116,VALID,360,VALID,0.916797,
2010-07-22, 00:47:05,VALID,1003.53,VALID,0,VALID,99.2899,VALID,0,VALID,25.6116,VALID,352,VALID,0.992578,
2010-07-22, 00:48:05,VALID,1003.53,VALID,0,VALID,96.0857,VALID,0,VALID,25.6311,VALID,351,VALID,0.400781,
2010-07-22, 00:49:05,VALID,1003.47,VALID,0,VALID,94.7125,VALID,0,VALID,25.6311,VALID,350,VALID,0.288672,
2010-07-22, 00:50:05,VALID,1003.47,VALID,0,VALID,95.1398,VALID,0,VALID,25.6311,VALID,329,VALID,0.509766,
2010-07-22, 00:51:05,VALID,1003.5,VALID,0,VALID,94.766,VALID,0,VALID,25.6097,VALID,349,VALID,0.359375,
2010-07-22, 00:52:05,VALID,1003.49,VALID,0,VALID,95.0558,VALID,0,VALID,25.6097,VALID,337,VALID,1.24922,
2010-07-22, 00:53:05,VALID,1003.49,VALID,0,VALID,93.7895,VALID,0,VALID,25.6292,VALID,354,VALID,0.817187,
2010-07-22, 00:54:05,VALID,1003.53,VALID,0,VALID,92.8206,VALID,0,VALID,25.67,VALID,353,VALID,0.275781,
2010-07-22, 00:55:05,VALID,1003.52,VALID,0,VALID,92.5765,VALID,0,VALID,25.6506,VALID,353,VALID,0.147656,
2010-07-22, 00:56:05,VALID,1003.52,VALID,0,VALID,92.5231,VALID,0,VALID,25.6506,VALID,352,VALID,0.564844,
2010-07-22, 00:57:05,VALID,1003.53,VALID,0,VALID,92.5765,VALID,0,VALID,25.6311,VALID,355,VALID,0.657422,
2010-07-22, 00:58:05,VALID,1003.48,VALID,0,VALID,92.9579,VALID,0,VALID,25.6116,VALID,345,VALID,0.695703,
2010-07-22, 00:59:05,VALID,1003.45,VALID,0,VALID,92.935,VALID,0,VALID,25.6116,VALID,341,VALID,0.577734,
2010-07-22, 01:00:05,VALID,1003.43,VALID,0,VALID,93.0037,VALID,0,VALID,25.5921,VALID,347,VALID,0.612891,
2010-07-22, 01:01:05,VALID,1003.41,VALID,0,VALID,93.0876,VALID,0.100563,VALID,25.5902,VALID,353,VALID,0.615625,
2010-07-22, 01:02:05,VALID,1003.42,VALID,0,VALID,92.9961,VALID,0.100563,VALID,25.5279,VALID,356,VALID,0.119141,
2010-07-22, 01:03:05,VALID,1003.38,VALID,0,VALID,93.3317,VALID,0.100563,VALID,25.5298,VALID,356,VALID,0.243359,
2010-07-22, 01:04:05,VALID,1003.38,VALID,0,VALID,93.7666,VALID,0.100563,VALID,25.5298,VALID,354,VALID,0.202734,
2010-07-22, 01:05:05,VALID,1003.36,VALID,0,VALID,94.209,VALID,0.100563,VALID,25.5104,VALID,348,VALID,0.169922,
2010-07-22, 01:06:05,VALID,1003.4,VALID,0,VALID,95.1321,VALID,0.100563,VALID,25.5123,VALID,326,VALID,0.357031,
2010-07-22, 01:07:05,VALID,1003.41,VALID,0,VALID,95.5822,VALID,0.100563,VALID,25.4909,VALID,360,VALID,0.362109,
2010-07-22, 01:08:05,VALID,1003.39,VALID,0,VALID,96.5435,VALID,0.100563,VALID,25.4714,VALID,334,VALID,0.648828,
2010-07-22, 01:09:05,VALID,1003.37,VALID,0,VALID,96.1086,VALID,0,VALID,25.4909,VALID,346,VALID,0.84375,
2010-07-22, 01:10:05,VALID,1003.37,VALID,0,VALID,95.3686,VALID,0.100563,VALID,25.5104,VALID,3,VALID,0.769141,
2010-07-22, 01:11:05,VALID,1003.38,VALID,0,VALID,94.0565,VALID,0.100563,VALID,25.4909,VALID,356,VALID,0.704687,
2010-07-22, 01:12:05,VALID,1003.35,VALID,0,VALID,94.1556,VALID,0.100563,VALID,25.4928,VALID,336,VALID,1.06172,
2010-07-22, 01:13:05,VALID,1003.35,VALID,0,VALID,94.2472,VALID,0.100563,VALID,25.4928,VALID,346,VALID,0.35,
2010-07-22, 01:14:05,VALID,1003.33,VALID,0,VALID,94.621,VALID,0.100563,VALID,25.4714,VALID,333,VALID,0.222266,
2010-07-22, 01:15:05,VALID,1003.37,VALID,0,VALID,96.0095,VALID,0.100563,VALID,25.452,VALID,346,VALID,0.791406,
2010-07-22, 01:16:05,VALID,1003.39,VALID,0,VALID,96.986,VALID,0,VALID,25.4539,VALID,338,VALID,0.378516,
2010-07-22, 01:17:05,VALID,1003.41,VALID,0,VALID,96.2688,VALID,0,VALID,25.4558,VALID,338,VALID,0,
2010-07-22, 01:18:05,VALID,1003.42,VALID,0,VALID,96.1315,VALID,0,VALID,25.4558,VALID,339,VALID,0.394531,
2010-07-22, 01:19:05,VALID,1003.44,VALID,0,VALID,96.9554,VALID,0,VALID,25.4149,VALID,340,VALID,0.124609,
2010-07-22, 01:20:05,VALID,1003.46,VALID,0,VALID,98.6338,VALID,0,VALID,25.4149,VALID,311,VALID,0.298047,
2010-07-22, 01:21:05,VALID,1003.46,VALID,0,VALID,99.9154,VALID,0,VALID,25.4363,VALID,333,VALID,0.658594,
2010-07-22, 01:22:05,VALID,1003.43,VALID,0,VALID,99.6561,VALID,0,VALID,25.4558,VALID,328,VALID,0.104297,
2010-07-22, 01:23:05,VALID,1003.44,VALID,0,VALID,99.5493,VALID,0,VALID,25.4753,VALID,352,VALID,0.535156,
2010-07-22, 01:24:05,VALID,1003.42,VALID,0,VALID,99.6408,VALID,0,VALID,25.4539,VALID,355,VALID,0.496875,
2010-07-22, 01:25:05,VALID,1003.44,VALID,0,VALID,99.3357,VALID,0,VALID,25.4734,VALID,346,VALID,0.583984,
2010-07-22, 01:26:05,VALID,1003.43,VALID,0,VALID,98.794,VALID,0,VALID,25.4928,VALID,357,VALID,0.272266,
2010-07-22, 01:27:05,VALID,1003.43,VALID,0,VALID,97.8328,VALID,0,VALID,25.4928,VALID,349,VALID,0.334375,
2010-07-22, 01:28:05,VALID,1003.45,VALID,0,VALID,97.993,VALID,0,VALID,25.5337,VALID,336,VALID,0.382422,
2010-07-22, 01:29:05,VALID,1003.43,VALID,0,VALID,98.2218,VALID,0,VALID,25.5337,VALID,13,VALID,0.332422,
2010-07-22, 01:30:05,VALID,1003.38,VALID,0,VALID,98.7482,VALID,0,VALID,25.5123,VALID,5,VALID,0.549219,
2010-07-22, 01:31:05,VALID,1003.37,VALID,0,VALID,100.259,VALID,0,VALID,25.5318,VALID,360,VALID,0,
2010-07-22, 01:32:05,VALID,1003.34,VALID,0,VALID,100.312,VALID,0,VALID,25.5337,VALID,4,VALID,0.267578,
2010-07-22, 01:33:05,VALID,1003.28,VALID,0,VALID,100.793,VALID,0,VALID,25.5318,VALID,360,VALID,0.244141,
2010-07-22, 01:34:05,VALID,1003.27,VALID,0,VALID,101.006,VALID,0,VALID,25.5532,VALID,2,VALID,0.487891,
2010-07-22, 01:35:05,VALID,1003.23,VALID,0,VALID,100.152,VALID,0,VALID,25.5123,VALID,352,VALID,0.779688,
2010-07-22, 01:36:05,VALID,1003.22,VALID,0,VALID,99.3738,VALID,0,VALID,25.5532,VALID,354,VALID,0.4625,
2010-07-22, 01:37:05,VALID,1003.21,VALID,0,VALID,98.2142,VALID,0,VALID,25.5513,VALID,353,VALID,1.07852,
2010-07-22, 01:38:05,VALID,1003.19,VALID,0,VALID,97.6268,VALID,0,VALID,25.5318,VALID,351,VALID,0.891797,
2010-07-22, 01:39:05,VALID,1003.16,VALID,0,VALID,97.8785,VALID,0,VALID,25.5727,VALID,354,VALID,1.05586,
2010-07-22, 01:40:05,VALID,1003.15,VALID,0,VALID,98.3515,VALID,0,VALID,25.5513,VALID,338,VALID,1.07734,
2010-07-22, 01:41:05,VALID,1003.12,VALID,0,VALID,99.1831,VALID,0,VALID,25.5513,VALID,346,VALID,0.957031,
2010-07-22, 01:42:05,VALID,1003.09,VALID,0,VALID,100.839,VALID,0,VALID,25.5318,VALID,354,VALID,0.599609,
2010-07-22, 01:43:05,VALID,1003.05,VALID,0,VALID,101.785,VALID,0,VALID,25.5337,VALID,345,VALID,0.9,
2010-07-22, 01:44:05,VALID,1003.06,VALID,0,VALID,103.074,VALID,0,VALID,25.4928,VALID,328,VALID,0.492188,
2010-07-22, 01:45:05,VALID,1003.06,VALID,0,VALID,103.913,VALID,0,VALID,25.5142,VALID,352,VALID,0.711719,
2010-07-22, 01:46:05,VALID,1003.05,VALID,0,VALID,104,VALID,0,VALID,25.4928,VALID,352,VALID,0.655469,
2010-07-22, 01:47:05,VALID,1003.04,VALID,0,VALID,104,VALID,0,VALID,25.5123,VALID,345,VALID,0.592578,
2010-07-22, 01:48:05,VALID,1003.01,VALID,0,VALID,104,VALID,0,VALID,25.5337,VALID,348,VALID,0.473437,
2010-07-22, 01:49:05,VALID,1003,VALID,0,VALID,104,VALID,0,VALID,25.5123,VALID,338,VALID,0.432031,
2010-07-22, 01:50:05,VALID,1002.97,VALID,0,VALID,104,VALID,0,VALID,25.5123,VALID,338,VALID,0.0078125,
2010-07-22, 01:51:05,VALID,1002.95,VALID,0,VALID,104,VALID,0,VALID,25.4928,VALID,341,VALID,0.370313,
2010-07-22, 01:52:05,VALID,1002.93,VALID,0,VALID,104,VALID,0,VALID,25.5142,VALID,341,VALID,0.05,
2010-07-22, 01:53:05,VALID,1002.89,VALID,0,VALID,104,VALID,0,VALID,25.4928,VALID,341,VALID,0,
2010-07-22, 01:54:05,VALID,1002.89,VALID,0,VALID,104,VALID,0,VALID,25.4734,VALID,341,VALID,0.429297,
2010-07-22, 01:55:05,VALID,1002.85,VALID,0,VALID,104,VALID,0,VALID,25.4558,VALID,341,VALID,0.257813,
2010-07-22, 01:56:05,VALID,1002.88,VALID,0,VALID,104,VALID,0,VALID,25.4149,VALID,341,VALID,0.222656,
2010-07-22, 01:57:05,VALID,1002.86,VALID,0,VALID,104,VALID,0,VALID,25.3955,VALID,341,VALID,0.239453,
2010-07-22, 01:58:05,VALID,1002.87,VALID,0,VALID,104,VALID,0,VALID,25.376,VALID,337,VALID,0.337891,
2010-07-22, 01:59:05,VALID,1002.85,VALID,0,VALID,104,VALID,0,VALID,25.376,VALID,328,VALID,0.0550781,
2010-07-22, 02:00:05,VALID,1002.84,VALID,0,VALID,104,VALID,0,VALID,25.376,VALID,328,VALID,0.119141,
2010-07-22, 02:01:05,VALID,1002.86,VALID,0,VALID,104,VALID,0,VALID,25.3584,VALID,328,VALID,0.0484375,
2010-07-22, 02:02:05,VALID,1002.85,VALID,0,VALID,104,VALID,0,VALID,25.3584,VALID,328,VALID,0.417578,
2010-07-22, 02:03:05,VALID,1002.83,VALID,0,VALID,104,VALID,0,VALID,25.3584,VALID,328,VALID,0.0410156,
2010-07-22, 02:04:05,VALID,1002.84,VALID,0,VALID,104,VALID,0,VALID,25.3779,VALID,328,VALID,0,
2010-07-22, 02:05:05,VALID,1002.8,VALID,0,VALID,104,VALID,0,VALID,25.3565,VALID,347,VALID,0.557813,
2010-07-22, 02:06:05,VALID,1002.77,VALID,0,VALID,104,VALID,0,VALID,25.3779,VALID,340,VALID,0.804297,
2010-07-22, 02:07:05,VALID,1002.69,VALID,0,VALID,104,VALID,0,VALID,25.3779,VALID,349,VALID,0.652734,
2010-07-22, 02:08:05,VALID,1002.66,VALID,0,VALID,104,VALID,0,VALID,25.3974,VALID,349,VALID,0.524609,
2010-07-22, 02:09:05,VALID,1002.64,VALID,0,VALID,104,VALID,0,VALID,25.3779,VALID,349,VALID,0.553906,
2010-07-22, 02:10:05,VALID,1002.62,VALID,0,VALID,104,VALID,0,VALID,25.2981,VALID,351,VALID,1.0332,
2010-07-22, 02:11:05,VALID,1002.58,VALID,0,VALID,104,VALID,0,VALID,25.3214,VALID,339,VALID,0.546875,
2010-07-22, 02:12:05,VALID,1002.5,VALID,0,VALID,104,VALID,0,VALID,25.3,VALID,337,VALID,0.855859,
2010-07-22, 02:13:05,VALID,1002.49,VALID,0,VALID,104,VALID,0,VALID,25.3,VALID,349,VALID,0.642187,
2010-07-22, 02:14:05,VALID,1002.5,VALID,0,VALID,104,VALID,0,VALID,25.2806,VALID,338,VALID,0.344531,
2010-07-22, 02:15:05,VALID,1002.49,VALID,0,VALID,104,VALID,0,VALID,25.3,VALID,339,VALID,0.378125,
2010-07-22, 02:16:05,VALID,1002.52,VALID,0,VALID,104,VALID,0.100563,VALID,25.2592,VALID,345,VALID,0.872266,
2010-07-22, 02:17:05,VALID,1002.5,VALID,0,VALID,104,VALID,0.100563,VALID,25.2397,VALID,356,VALID,0.967578,
2010-07-22, 02:18:05,VALID,1002.49,VALID,0,VALID,104,VALID,0.100563,VALID,25.2416,VALID,350,VALID,0.970703,
2010-07-22, 02:19:05,VALID,1002.47,VALID,0,VALID,104,VALID,0,VALID,25.2027,VALID,356,VALID,1.25469,
2010-07-22, 02:20:05,VALID,1002.45,VALID,0,VALID,104,VALID,0.100563,VALID,25.1813,VALID,354,VALID,1.07773,
2010-07-22, 02:21:05,VALID,1002.48,VALID,0,VALID,104,VALID,0.100563,VALID,25.2202,VALID,355,VALID,1.23125,
2010-07-22, 02:22:05,VALID,1002.51,VALID,0,VALID,104,VALID,0.100563,VALID,25.2397,VALID,352,VALID,0.612109,
2010-07-22, 02:23:05,VALID,1002.53,VALID,0,VALID,104,VALID,0.100563,VALID,25.2786,VALID,353,VALID,1.46563,
2010-07-22, 02:24:05,VALID,1002.54,VALID,0,VALID,104,VALID,0.100563,VALID,25.2962,VALID,357,VALID,0.705859,
2010-07-22, 02:25:05,VALID,1002.57,VALID,0,VALID,104,VALID,0.100563,VALID,25.3176,VALID,346,VALID,1.21641,
2010-07-22, 02:26:05,VALID,1002.6,VALID,0,VALID,104,VALID,0,VALID,25.3565,VALID,355,VALID,0.773438,
2010-07-22, 02:27:05,VALID,1002.6,VALID,0,VALID,104,VALID,0.100563,VALID,25.376,VALID,356,VALID,0.929297,
2010-07-22, 02:28:05,VALID,1002.59,VALID,0,VALID,104,VALID,0.100563,VALID,25.4363,VALID,355,VALID,1.14766,
2010-07-22, 02:29:05,VALID,1002.65,VALID,0,VALID,104,VALID,0.100563,VALID,25.4539,VALID,344,VALID,0.837109,
2010-07-22, 02:30:05,VALID,1002.69,VALID,0,VALID,104,VALID,0.100563,VALID,25.4539,VALID,352,VALID,0.843359,
2010-07-22, 02:31:05,VALID,1002.74,VALID,0,VALID,104,VALID,0,VALID,25.4753,VALID,338,VALID,0.660547,
2010-07-22, 02:32:05,VALID,1002.78,VALID,0,VALID,104,VALID,0,VALID,25.5357,VALID,339,VALID,0.961328,
2010-07-22, 02:33:05,VALID,1002.77,VALID,0,VALID,104,VALID,0,VALID,25.5727,VALID,354,VALID,1.22891,
2010-07-22, 02:34:05,VALID,1002.81,VALID,0,VALID,99.3051,VALID,0,VALID,25.6116,VALID,340,VALID,0.466797,
2010-07-22, 02:35:05,VALID,1002.77,VALID,0,VALID,96.3299,VALID,0,VALID,25.6525,VALID,345,VALID,0.713672,
2010-07-22, 02:36:05,VALID,1002.78,VALID,0,VALID,95.0787,VALID,0,VALID,25.6311,VALID,354,VALID,0.975391,
2010-07-22, 02:37:05,VALID,1002.76,VALID,0,VALID,96.2612,VALID,0,VALID,25.6311,VALID,349,VALID,0.963672,
2010-07-22, 02:38:05,VALID,1002.81,VALID,0,VALID,95.0635,VALID,0,VALID,25.6311,VALID,355,VALID,0.4875,
2010-07-22, 02:39:05,VALID,1002.83,VALID,0,VALID,94.5371,VALID,0,VALID,25.6311,VALID,340,VALID,0.518359,
2010-07-22, 02:40:05,VALID,1002.89,VALID,0,VALID,93.6979,VALID,0,VALID,25.6097,VALID,331,VALID,0.189063,
2010-07-22, 02:41:05,VALID,1002.93,VALID,0,VALID,93.6598,VALID,0,VALID,25.6311,VALID,346,VALID,0.501172,
2010-07-22, 02:42:05,VALID,1002.97,VALID,0,VALID,93.5377,VALID,0,VALID,25.6097,VALID,330,VALID,0.0164062,
2010-07-22, 02:43:05,VALID,1002.96,VALID,0,VALID,94.2243,VALID,0,VALID,25.6116,VALID,288,VALID,0.809766,
2010-07-22, 02:44:05,VALID,1002.93,VALID,0,VALID,95.9332,VALID,0,VALID,25.6311,VALID,285,VALID,1.32383,
2010-07-22, 02:45:05,VALID,1002.91,VALID,0,VALID,95.7196,VALID,0,VALID,25.6311,VALID,278,VALID,1.16094,
2010-07-22, 02:46:05,VALID,1002.9,VALID,0,VALID,95.3381,VALID,0.100563,VALID,25.6486,VALID,297,VALID,0.941406,
2010-07-22, 02:47:05,VALID,1002.87,VALID,0,VALID,94.7812,VALID,0.100563,VALID,25.6486,VALID,283,VALID,0.577344,
2010-07-22, 02:48:05,VALID,1002.89,VALID,0,VALID,94.5523,VALID,0.100563,VALID,25.6681,VALID,284,VALID,0.467187,
2010-07-22, 02:49:05,VALID,1002.87,VALID,0,VALID,94.1633,VALID,0,VALID,25.6876,VALID,285,VALID,0.170703,
2010-07-22, 02:50:05,VALID,1002.89,VALID,0,VALID,94.4303,VALID,0.100563,VALID,25.6681,VALID,284,VALID,0.00429688,
2010-07-22, 02:51:05,VALID,1002.86,VALID,0,VALID,94.9414,VALID,0.100563,VALID,25.6486,VALID,284,VALID,0.144922,
2010-07-22, 02:52:05,VALID,1002.89,VALID,0,VALID,95.4983,VALID,0,VALID,25.6292,VALID,284,VALID,0,
2010-07-22, 02:53:05,VALID,1002.88,VALID,0,VALID,96.1544,VALID,0.100563,VALID,25.6292,VALID,290,VALID,0.0890625,
2010-07-22, 02:54:05,VALID,1002.88,VALID,0,VALID,97.6878,VALID,0.100563,VALID,25.6097,VALID,348,VALID,0.5875,
2010-07-22, 02:55:05,VALID,1002.88,VALID,0,VALID,97.8633,VALID,0.100563,VALID,25.6116,VALID,354,VALID,0.125781,
2010-07-22, 02:56:05,VALID,1002.87,VALID,0,VALID,98.6567,VALID,0.100563,VALID,25.5707,VALID,353,VALID,0.249219,
2010-07-22, 02:57:05,VALID,1002.85,VALID,0,VALID,100.373,VALID,0,VALID,25.5513,VALID,355,VALID,0.2,
2010-07-22, 02:58:05,VALID,1002.85,VALID,0,VALID,101.861,VALID,0,VALID,25.5513,VALID,355,VALID,0.215234,
2010-07-22, 02:59:05,VALID,1002.85,VALID,0,VALID,103.509,VALID,0,VALID,25.5123,VALID,352,VALID,0.474219,
2010-07-22, 03:00:05,VALID,1002.86,VALID,0,VALID,104,VALID,0,VALID,25.4928,VALID,353,VALID,0.967578,
2010-07-22, 03:01:05,VALID,1002.83,VALID,0,VALID,104,VALID,0.100563,VALID,25.4928,VALID,3,VALID,0.410156,
2010-07-22, 03:02:05,VALID,1002.83,VALID,0,VALID,104,VALID,0,VALID,25.4734,VALID,342,VALID,0.785156,
2010-07-22, 03:03:05,VALID,1002.83,VALID,0,VALID,104,VALID,0,VALID,25.4539,VALID,9,VALID,0.7,
2010-07-22, 03:04:05,VALID,1002.83,VALID,0,VALID,104,VALID,0.100563,VALID,25.4558,VALID,352,VALID,0.798437,
2010-07-22, 03:05:05,VALID,1002.82,VALID,0,VALID,104,VALID,0,VALID,25.4753,VALID,351,VALID,0.636328,
2010-07-22, 03:06:05,VALID,1002.81,VALID,0,VALID,104,VALID,0.100563,VALID,25.4558,VALID,353,VALID,1.00664,
2010-07-22, 03:07:05,VALID,1002.8,VALID,0,VALID,104,VALID,0,VALID,25.4325,VALID,2,VALID,0.869141,
2010-07-22, 03:08:05,VALID,1002.81,VALID,0,VALID,104,VALID,0,VALID,25.4558,VALID,334,VALID,0.590234,
2010-07-22, 03:09:05,VALID,1002.8,VALID,0,VALID,104,VALID,0,VALID,25.4753,VALID,347,VALID,0.955078,
2010-07-22, 03:10:05,VALID,1002.81,VALID,0,VALID,104,VALID,0,VALID,25.4539,VALID,342,VALID,0.65,
2010-07-22, 03:11:05,VALID,1002.81,VALID,0,VALID,104,VALID,0,VALID,25.4149,VALID,355,VALID,0.866406,
2010-07-22, 03:12:05,VALID,1002.79,VALID,0,VALID,104,VALID,0,VALID,25.4344,VALID,353,VALID,0.199219,
2010-07-22, 03:13:05,VALID,1002.82,VALID,0,VALID,104,VALID,0,VALID,25.4149,VALID,333,VALID,0.117969,
2010-07-22, 03:14:05,VALID,1002.82,VALID,0,VALID,104,VALID,0,VALID,25.4149,VALID,351,VALID,0.696875,
2010-07-22, 03:15:05,VALID,1002.82,VALID,0,VALID,104,VALID,0,VALID,25.4169,VALID,353,VALID,0.619922,
2010-07-22, 03:16:05,VALID,1002.82,VALID,0,VALID,104,VALID,0,VALID,25.3955,VALID,348,VALID,0.200391,
2010-07-22, 03:17:05,VALID,1002.82,VALID,0,VALID,104,VALID,0,VALID,25.3955,VALID,346,VALID,1.04062,
2010-07-22, 03:18:05,VALID,1002.8,VALID,0,VALID,104,VALID,0,VALID,25.376,VALID,316,VALID,0.235156,
2010-07-22, 03:19:05,VALID,1002.81,VALID,0,VALID,104,VALID,0,VALID,25.376,VALID,328,VALID,0.260547,
2010-07-22, 03:20:05,VALID,1002.78,VALID,0,VALID,104,VALID,0.100563,VALID,25.376,VALID,329,VALID,0.207422,
2010-07-22, 03:21:05,VALID,1002.76,VALID,0,VALID,104,VALID,0,VALID,25.3779,VALID,340,VALID,0.614844,
2010-07-22, 03:22:05,VALID,1002.82,VALID,0,VALID,104,VALID,0.100563,VALID,25.3779,VALID,1,VALID,0.573438,
2010-07-22, 03:23:05,VALID,1002.85,VALID,0,VALID,104,VALID,0.100563,VALID,25.3157,VALID,314,VALID,0.353516,
2010-07-22, 03:24:04,VALID,1002.87,VALID,0,VALID,104,VALID,0,VALID,25.339,VALID,315,VALID,0.00507812,
2010-07-22, 03:25:04,VALID,1002.9,VALID,0,VALID,104,VALID,0,VALID,25.2962,VALID,308,VALID,0.331641,
2010-07-22, 03:26:04,VALID,1002.94,VALID,0,VALID,104,VALID,0,VALID,25.2786,VALID,277,VALID,0.292188,
2010-07-22, 03:27:04,VALID,1002.98,VALID,0,VALID,104,VALID,0,VALID,25.2786,VALID,279,VALID,0.209766,
2010-07-22, 03:28:04,VALID,1003.03,VALID,0,VALID,104,VALID,0.100563,VALID,25.2786,VALID,301,VALID,0.381641,
2010-07-22, 03:29:04,VALID,1003.1,VALID,0,VALID,104,VALID,0,VALID,25.2786,VALID,293,VALID,0.625781,
2010-07-22, 03:30:04,VALID,1003.11,VALID,0,VALID,104,VALID,0.100563,VALID,25.2981,VALID,290,VALID,0.625781,
2010-07-22, 03:31:04,VALID,1003.15,VALID,0,VALID,104,VALID,0,VALID,25.3,VALID,287,VALID,0.336719,
2010-07-22, 03:32:04,VALID,1003.15,VALID,0,VALID,104,VALID,0,VALID,25.3195,VALID,288,VALID,1.21328,
2010-07-22, 03:33:04,VALID,1003.17,VALID,0,VALID,104,VALID,0,VALID,25.3584,VALID,322,VALID,0.33125,
2010-07-22, 03:34:04,VALID,1003.15,VALID,0,VALID,104,VALID,0,VALID,25.3779,VALID,328,VALID,0.285156,
2010-07-22, 03:35:04,VALID,1003.14,VALID,0,VALID,104,VALID,0,VALID,25.3584,VALID,326,VALID,0.0433594,
2010-07-22, 03:36:04,VALID,1003.15,VALID,0,VALID,104,VALID,0,VALID,25.3779,VALID,359,VALID,0.705469,
2010-07-22, 03:37:04,VALID,1003.15,VALID,0,VALID,104,VALID,0,VALID,25.3779,VALID,356,VALID,0.735156,
2010-07-22, 03:38:04,VALID,1003.15,VALID,0,VALID,104,VALID,0,VALID,25.3993,VALID,356,VALID,0.645703,
2010-07-22, 03:39:04,VALID,1003.16,VALID,0,VALID,104,VALID,0,VALID,25.3584,VALID,343,VALID,0.602734,
2010-07-22, 03:40:04,VALID,1003.15,VALID,0,VALID,104,VALID,0,VALID,25.339,VALID,339,VALID,0.585156,
2010-07-22, 03:41:04,VALID,1003.14,VALID,0,VALID,104,VALID,0,VALID,25.3195,VALID,336,VALID,0.255078,
2010-07-22, 03:42:04,VALID,1003.17,VALID,0,VALID,104,VALID,0,VALID,25.3214,VALID,340,VALID,0.335156,
2010-07-22, 03:43:04,VALID,1003.17,VALID,0,VALID,104,VALID,0,VALID,25.3,VALID,347,VALID,0.220703,
2010-07-22, 03:44:04,VALID,1003.19,VALID,0,VALID,104,VALID,0,VALID,25.2786,VALID,347,VALID,0.00859375,
2010-07-22, 03:45:04,VALID,1003.21,VALID,0,VALID,104,VALID,0,VALID,25.3,VALID,348,VALID,0.611719,
2010-07-22, 03:46:04,VALID,1003.21,VALID,0,VALID,104,VALID,0,VALID,25.2786,VALID,347,VALID,0.255859,